User: anonymous   Login
Location: Caltech
(34.1382°N, 118.1253°W)
Time: 06:14:37
(UTC-08:00)
Language:

Iridium 62 - Orbit

View from above orbital plane
View from above orbital plane
View from above satellite
View from above satellite

Ground track
Ground track

The orbit data is extracted from the following two-line orbital elements,

1 25285U 98021A   14325.89690563  .00000569  00000-0  19602-3 0   186
2 25285 086.4000 256.0809 0002170 106.7459 253.3975 14.34215047870532
Epoch (UTC): 21 November 2014 21:31:32
Eccentricity: 0.0002170
inclination: 86.4000°
perigee height: 776 km
apogee height: 779 km
right ascension of ascending node: 256.0809°
argument of perigee: 106.7459°
revolutions per day: 14.34215047
mean anomaly at epoch: 253.3975°
orbit number at epoch: 87053

The dashed part of the orbit path shows where the satellite is in the earth's shadow,  

DLR